#timestamp,LO_Frequency,Hit 
1504422015.7,286046998.9,N
1504422035.5,286046999.4,N
1504422055.4,286047001.9,N
1504422075.2,286046999.9,N
1504422095.0,286047002.3,N
1504422095.9,286047002.3,N
1504422115.8,286046999.0,N
1504422135.6,286047004.3,N
1504422155.4,286047007.5,N
1504422175.3,286047005.0,N
1504422195.1,286047005.8,N
1504422196.0,286047005.8,N
1504422215.8,286047004.0,N
1504422235.7,286047003.4,N
1504422255.5,286047001.8,N
1504422275.3,286046998.9,N
1504422295.2,286046996.1,N
1504422315.9,286046992.0,N
1504422335.7,286046994.2,N
1504422355.5,286046994.3,N
1504422375.4,286046999.1,N
1504422395.2,286046997.2,N
1504422415.0,286046997.2,N
1504422415.9,286046997.2,N
1504422435.8,286046998.7,N
1504422455.6,286046999.5,N
1504422475.4,286046998.3,N
1504422495.3,286046999.7,N
1504422515.1,286047002.1,N
1504422516.0,286047002.1,N
1504422535.8,286047004.2,N
1504422555.7,286046999.7,N
1504422575.5,286047003.2,N
1504422595.3,286047004.4,N
1504422615.2,286046998.1,N
1504422635.9,286046995.4,N
1504422655.7,286046997.2,N
1504422675.6,286046997.7,N
1504422695.4,286046998.1,N
1504422715.2,286047001.4,N
1504422735.0,286047000.7,N
1504422735.9,286047000.7,N
1504422755.8,286046997.5,N
1504422775.6,286046996.8,N
1504422795.4,286047001.0,N
1504422815.3,286047005.3,N
1504422835.1,286047008.2,N
1504422855.8,286047008.2,N
1504422875.7,286047009.4,N
1504422895.5,286047012.3,P
1504422915.3,286047009.1,N
1504422935.2,286047008.0,N
1504422955.0,286047008.6,N
1504422955.9,286047008.6,N
1504422975.7,286047008.2,N
1504422995.6,286047003.9,N
1504423015.4,286047002.7,N
1504423035.2,286047001.6,N
1504423055.1,286047003.1,N
1504423056.0,286047003.1,N
1504423075.8,286047002.2,N
1504423095.6,286046996.5,N
1504423115.5,286046999.6,N
1504423135.3,286047000.6,N
1504423155.1,286047002.3,N
1504423175.9,286047000.9,N
1504423195.7,286047000.8,N
1504423215.5,286047003.8,N
1504423235.3,286047004.5,N
1504423255.2,286047004.5,N
1504423275.0,286047004.5,N
1504423275.9,286047004.5,N
1504423295.7,286047001.9,N
1504423315.6,286047004.1,N
1504423335.4,286047003.4,N
1504423355.2,286047005.1,N
1504423375.1,286047004.7,N
1504423376.0,286047004.7,N
1504423395.8,286047002.9,N
1504423415.6,286047001.5,N
1504423435.5,286047002.6,N
1504423455.3,286047001.2,N
1504423475.1,286047000.6,N
1504423495.9,286046998.6,N
1504423515.7,286046996.9,N
1504423535.5,286046999.2,N
1504423555.4,286046997.6,N
1504423575.2,286047001.6,N
1504423595.0,286047000.0,N
1504423595.9,286047000.0,N
1504423615.7,286046998.4,N
1504423635.6,286047003.9,N
1504423655.4,286047007.0,P
1504423675.3,286047001.6,N
1504423695.1,286046998.2,N
1504423696.0,286046998.2,N
1504423715.8,286047002.8,N
1504423735.6,286046999.7,N
1504423755.5,286047001.1,N
1504423775.3,286047000.9,N
1504423795.1,286046997.4,N
1504423815.9,286046999.5,N
1504423835.7,286047001.6,N
1504423855.5,286047002.8,N
1504423875.4,286046999.1,N
1504423895.2,286046995.7,N
1504423915.0,286046995.5,N
1504423915.9,286046995.5,N
1504423935.8,286046997.8,N
1504423955.6,286046996.5,N
1504423975.4,286046997.2,N
1504423995.2,286046994.1,N
1504424015.1,286046997.2,N
1504424016.0,286046997.2,N
1504424035.8,286046998.2,N
1504424055.6,286046995.3,N
1504424075.5,286046995.1,N
1504424095.3,286046995.4,N
1504424115.1,286046997.9,N
1504424135.9,286047000.5,N
1504424155.7,286046999.3,N
1504424175.5,286046996.9,N
1504424195.4,286047001.9,N
1504424215.2,286047001.7,N
1504424235.0,286047000.6,N
1504424235.9,286047000.6,N
1504424255.8,286047004.3,N
1504424275.6,286046998.2,N
1504424295.4,286046997.4,N
1504424315.3,286046996.0,N
1504424335.1,286046996.3,N
1504424336.0,286046996.3,N
1504424355.8,286046993.9,N
1504424375.6,286046995.7,N
1504424395.5,286046996.6,N
1504424415.3,286046988.7,P
1504424435.2,286046989.1,N
1504424455.9,286046988.8,N
1504424475.7,286046988.5,P
1504424495.6,286047000.7,N
1504424515.4,286047003.1,N
1504424535.2,286047006.1,N
1504424555.1,286047004.7,N
1504424556.0,286047004.7,N
1504424575.8,286047004.7,N
1504424595.6,286047005.5,N
1504424615.4,286047005.1,N
1504424635.3,286047006.9,N
1504424655.1,286047011.6,N
1504424675.8,286047015.0,N
1504424695.7,286047012.6,N
1504424715.5,286047011.9,N
1504424735.3,286047008.2,N
1504424755.2,286047007.9,N
1504424775.9,286047006.8,N
1504424795.7,286047008.8,N
1504424815.6,286047013.4,N
1504424835.4,286047015.4,N
1504424855.2,286047010.7,N
1504424875.1,286047006.3,N
1504424876.0,286047006.3,N
1504424895.8,286047006.6,N
1504424915.6,286047006.8,N
1504424935.4,286047008.5,N
1504424955.3,286047013.9,N
1504424975.1,286047011.1,N
1504424995.8,286047015.4,N
1504425015.7,286047020.2,P
1504425035.5,286047003.1,N
1504425055.3,286046999.9,N
1504425075.2,286046996.6,N
1504425095.0,286046999.0,N
1504425095.9,286046999.0,N
1504425115.7,286047002.5,N
1504425135.6,286046999.9,N
1504425155.4,286046998.8,N
1504425175.2,286047000.0,N
1504425195.1,286047004.2,N
1504425196.0,286047004.2,N
1504425215.8,286047001.7,N
1504425235.6,286047003.1,N
1504425255.5,286046999.7,N
1504425275.3,286046995.4,N
1504425295.1,286046996.2,N
1504425315.9,286046999.2,N
1504425335.7,286046996.2,N
1504425355.5,286046993.8,N
1504425375.3,286046994.7,N
1504425395.2,286046991.7,N
1504425415.0,286046993.4,N
1504425415.9,286046993.4,N
1504425435.7,286046996.4,N
1504425455.6,286046997.1,N
1504425475.4,286046998.2,N
1504425495.2,286047000.8,N
1504425515.1,286047001.3,N
1504425516.0,286047001.3,N
1504425535.8,286047004.8,N
1504425555.6,286047004.4,N
1504425575.5,286046999.7,N
1504425595.3,286047002.7,N
